Weather History for KDLZ - May, 2013

Change the Weather History Date:

Sunday, May 19, 2013

  Actual Average Record
Temperature  
Mean Temperature 70 °F -  
Max Temperature 80 °F 73 °F 90 °F (1939)
Min Temperature 59 °F 49 °F 35 °F (1973)
Cooling Degree Days 4    
Growing Degree Days 20 (Base 50)    
Moisture  
Dew Point 60 °F    
Average Humidity 71    
Maximum Humidity 94    
Minimum Humidity 51    
Precipitation  
Precipitation 0.00 in - - ()
Sea Level Pressure  
Sea Level Pressure 30.00 in    
Wind  
Wind Speed 5 mph (SE)    
Max Wind Speed 12 mph    
Max Gust Speed -    
Visibility 10 miles    
Events      
Averages and records for this station are not official NWS values.
T = Trace of Precipitation, MM = Missing Value Source: NWS Daily Summary

Daily Weather History Graph

Daily Weather History Graph

Search for Another Location

Airport or City:

Trip Planner

Search our weather history database for the weather conditions in past years. The results will help you decide how hot, cold, wet, or windy it might be!

Date:

Astronomy

May. 19, 2013 Rise Set
Actual Time 6:12 AM EDT 8:45 PM EDT
Civil Twilight 5:41 AM EDT 9:16 PM EDT
Nautical Twilight 5:02 AM EDT 9:55 PM EDT
Astronomical Twilight 4:19 AM EDT 10:39 PM EDT
Moon 2:48 PM EDT (5/19) 2:36 AM EDT (5/19)
Length of Visible Light 15h 35m
Length of Day
14h 32m
Waxing Gibbous, 65% of the Moon is Illuminated
May 19
Waxing Gibbous
May 25
Full
May 31
Last Quarter
Jun 8
New
Jun 16
First Quarter

Hourly Weather History & Observations

Time (EDT) Temp. Heat Index Dew Point Humidity Pressure Visibility Wind Dir Wind Speed Gust Speed Precip Events Conditions
12:20 AM 68.0 °F - 59.0 °F 73% 30.01 in 10.0 mi ESE 3.5 mph - N/A   Clear
12:39 AM 66.2 °F - 59.0 °F 78% 30.01 in 10.0 mi SE 3.5 mph - N/A   Clear
12:59 AM 64.4 °F - 59.0 °F 83% 30.02 in 10.0 mi SSE 4.6 mph - N/A   Clear
1:20 AM 64.4 °F - 59.0 °F 83% 30.02 in 10.0 mi SSE 3.5 mph - N/A   Clear
1:39 AM 64.4 °F - 59.0 °F 83% 30.01 in 10.0 mi Calm Calm - N/A   Clear
1:59 AM 62.6 °F - 59.0 °F 88% 30.01 in 10.0 mi Calm Calm - N/A   Clear
2:19 AM 62.6 °F - 59.0 °F 88% 30.00 in 10.0 mi Calm Calm - N/A   Clear
2:39 AM 60.8 °F - 59.0 °F 94% 30.00 in 10.0 mi East 3.5 mph - N/A   Clear
2:59 AM 62.6 °F - 59.0 °F 88% 30.00 in 10.0 mi ESE 4.6 mph - N/A   Clear
3:19 AM 62.6 °F - 59.0 °F 88% 30.00 in 10.0 mi SE 4.6 mph - N/A   Clear
3:39 AM 62.6 °F - 57.2 °F 82% 30.00 in 10.0 mi SE 3.5 mph - N/A   Clear
3:59 AM 60.8 °F - 57.2 °F 88% 29.99 in 10.0 mi ESE 3.5 mph - N/A   Clear
4:19 AM 60.8 °F - 57.2 °F 88% 30.00 in 10.0 mi SE 5.8 mph - N/A   Clear
4:39 AM 60.8 °F - 57.2 °F 88% 30.01 in 10.0 mi SE 4.6 mph - N/A   Clear
4:59 AM 60.8 °F - 57.2 °F 88% 30.02 in 10.0 mi SSE 3.5 mph - N/A   Clear
5:19 AM 60.8 °F - 57.2 °F 88% 30.02 in 10.0 mi SSE 3.5 mph - N/A   Clear
5:39 AM 59.0 °F - 55.4 °F 88% 30.02 in 10.0 mi Calm Calm - N/A   Clear
5:59 AM 59.0 °F - 55.4 °F 88% 30.03 in 10.0 mi Calm Calm - N/A   Clear
6:19 AM 59.0 °F - 57.2 °F 94% 30.03 in 10.0 mi Calm Calm - N/A   Clear
6:39 AM 59.0 °F - 55.4 °F 88% 30.03 in 7.0 mi Calm Calm - N/A   Clear
7:00 AM 59.0 °F - 55.4 °F 88% 30.03 in 7.0 mi East 4.6 mph - N/A   Clear
7:19 AM 60.8 °F - 59.0 °F 94% 30.04 in 7.0 mi Calm Calm - N/A   Clear
7:39 AM 62.6 °F - 59.0 °F 88% 30.04 in 10.0 mi ESE 4.6 mph - N/A   Clear
8:19 AM 64.4 °F - 60.8 °F 88% 30.04 in 10.0 mi East 6.9 mph - N/A   Clear
8:39 AM 66.2 °F - 60.8 °F 83% 30.04 in 10.0 mi ESE 3.5 mph - N/A   Clear
9:00 AM 68.0 °F - 60.8 °F 78% 30.03 in 10.0 mi ESE 5.8 mph - N/A   Clear
9:19 AM 69.8 °F - 60.8 °F 73% 30.03 in 10.0 mi SE 5.8 mph - N/A   Clear
9:39 AM 69.8 °F - 62.6 °F 78% 30.03 in 10.0 mi SSE 8.1 mph - N/A   Clear
10:00 AM 71.6 °F - 62.6 °F 73% 30.03 in 10.0 mi SSE 8.1 mph - N/A   Mostly Cloudy
10:19 AM 73.4 °F - 62.6 °F 69% 30.03 in 10.0 mi SE 11.5 mph - N/A   Mostly Cloudy
10:59 AM 75.2 °F - 62.6 °F 65% 30.02 in 10.0 mi SE 8.1 mph - N/A   Scattered Clouds
11:19 AM 75.2 °F - 62.6 °F 65% 30.02 in 10.0 mi SSE 10.4 mph - N/A   Mostly Cloudy
11:39 AM 73.4 °F - 62.6 °F 69% 30.03 in 10.0 mi South 4.6 mph - N/A   Overcast
11:59 AM 75.2 °F - 62.6 °F 65% 30.03 in 10.0 mi South 8.1 mph - N/A   Overcast
12:19 PM 77.0 °F - 62.6 °F 61% 30.03 in 10.0 mi South 9.2 mph - N/A   Mostly Cloudy
12:39 PM 75.2 °F - 60.8 °F 61% 30.03 in 10.0 mi SSE 10.4 mph - N/A   Overcast
12:59 PM 75.2 °F - 62.6 °F 65% 30.02 in 10.0 mi SSE 6.9 mph - N/A   Overcast
1:19 PM 77.0 °F - 62.6 °F 61% 30.01 in 10.0 mi SSW 6.9 mph - N/A   Overcast
1:40 PM 77.0 °F - 62.6 °F 61% 29.99 in 10.0 mi SSW 5.8 mph - N/A   Scattered Clouds
1:59 PM 78.8 °F - 60.8 °F 54% 29.99 in 10.0 mi SSE 9.2 mph - N/A   Mostly Cloudy
2:19 PM 78.8 °F - 60.8 °F 54% 29.99 in 10.0 mi South 5.8 mph - N/A   Mostly Cloudy
2:39 PM 77.0 °F - 60.8 °F 57% 29.98 in 10.0 mi SSE 6.9 mph - N/A   Overcast
3:20 PM 77.0 °F - 62.6 °F 61% 29.98 in 10.0 mi South 10.4 mph - N/A   Overcast
3:39 PM 77.0 °F - 62.6 °F 61% 29.98 in 10.0 mi South 6.9 mph - N/A   Overcast
3:59 PM 77.0 °F - 62.6 °F 61% 29.98 in 10.0 mi South 3.5 mph - N/A   Overcast
4:20 PM 78.8 °F - 60.8 °F 54% 29.97 in 10.0 mi NE 4.6 mph - N/A   Overcast
4:39 PM 77.0 °F - 62.6 °F 61% 29.97 in 10.0 mi NNE 4.6 mph - N/A   Overcast
4:59 PM 78.8 °F - 60.8 °F 54% 29.95 in 10.0 mi SSE 8.1 mph - N/A   Scattered Clouds
5:20 PM 80.6 °F 81.5 °F 60.8 °F 51% 29.95 in 10.0 mi SSE 6.9 mph - N/A   Clear
5:39 PM 80.6 °F 81.5 °F 60.8 °F 51% 29.95 in 10.0 mi SSE 5.8 mph - N/A   Scattered Clouds
5:59 PM 80.6 °F 81.5 °F 60.8 °F 51% 29.95 in 10.0 mi ESE 6.9 mph - N/A   Clear
6:20 PM 78.8 °F - 60.8 °F 54% 29.95 in 10.0 mi East 4.6 mph - N/A   Scattered Clouds
6:39 PM 80.6 °F 81.5 °F 60.8 °F 51% 29.94 in 10.0 mi ESE 8.1 mph - N/A   Scattered Clouds
6:59 PM 78.8 °F - 60.8 °F 54% 29.94 in 10.0 mi SSE 10.4 mph - N/A   Clear
7:20 PM 78.8 °F - 60.8 °F 54% 29.95 in 10.0 mi SE 6.9 mph - N/A   Clear
7:39 PM 78.8 °F - 60.8 °F 54% 29.95 in 10.0 mi SE 6.9 mph - N/A   Clear
7:59 PM 77.0 °F - 60.8 °F 57% 29.96 in 10.0 mi SE 6.9 mph - N/A   Clear
8:19 PM 77.0 °F - 60.8 °F 57% 29.96 in 10.0 mi SSE 4.6 mph - N/A   Clear
8:39 PM 75.2 °F - 60.8 °F 61% 29.96 in 10.0 mi SE 4.6 mph - N/A   Clear
9:00 PM 73.4 °F - 60.8 °F 65% 29.96 in 10.0 mi SE 4.6 mph - N/A   Clear
9:19 PM 73.4 °F - 60.8 °F 65% 29.96 in 10.0 mi ESE 5.8 mph - N/A   Clear
9:39 PM 71.6 °F - 60.8 °F 69% 29.95 in 10.0 mi ESE 4.6 mph - N/A   Clear
10:00 PM 71.6 °F - 60.8 °F 69% 29.96 in 10.0 mi SE 6.9 mph - N/A   Clear
10:19 PM 71.6 °F - 60.8 °F 69% 29.97 in 10.0 mi ESE 5.8 mph - N/A   Clear
10:39 PM 71.6 °F - 60.8 °F 69% 29.97 in 10.0 mi SE 5.8 mph - N/A   Clear
11:00 PM 69.8 °F - 60.8 °F 73% 29.97 in 10.0 mi SE 5.8 mph - N/A   Clear
11:19 PM 69.8 °F - 60.8 °F 73% 29.97 in 10.0 mi SE 5.8 mph - N/A   Clear
11:39 PM 69.8 °F - 62.6 °F 78% 29.96 in 10.0 mi SE 6.9 mph - N/A   Clear